User: anonymous   Login
Location: Unspecified
(0.0000°N, 0.0000°E)
Time: 19:54:08
(UTC+00:00)
Language:

USA 270 - Orbit

View from above orbital plane
View from above orbital plane
View from above satellite
View from above satellite

Ground track
Ground track

The orbit data is extracted from the following two-line orbital elements,

1 41744U 16052A   21125.45486111 -.00000190  00000-0  00000+0 0  9995
2 41744   0.1444 111.0066 0000370 170.9381 191.3672  1.00195521    46
Epoch (UTC): 05 May 2021 10:55:00
Eccentricity: 0.0000370
inclination: 0.1444°
perigee height: 35806 km
apogee height: 35809 km
right ascension of ascending node: 111.0066°
argument of perigee: 170.9381°
revolutions per day: 1.00195521
mean anomaly at epoch: 191.3672°
orbit number at epoch: 4

The dashed part of the orbit path shows where the satellite is in the earth's shadow,  

DLR